Hourly Data Report for April 11, 2021

TORONTO CITY
ONTARIO
Current Station Operator: ECCC - MSC

43°40'00.000" N
79°24'00.000" W
112.50 m
6158355
71508
XTO

Download Data

Hourly Data (April 2021)
Hourly Data Report for April 11, 2021
TIME
LST
Temp Definition
°C
Dew Point Definition
°C
Rel Hum Definition
%
Precip. Amount Definition
mm

Wind Dir Definition
10's deg

Wind Spd Definition
km/h
Visibility Definition
km
Stn Press Definition
kPa
Hmdx Definition


Wind Chill Definition


Weather Definition


00:00 16.4 5.2 48 0.0       98.71     LegendNANA
01:00 16.0 6.4 53 0.0       98.67     LegendNANA
02:00 15.5 7.6 59 0.0       98.58     LegendNANA
03:00 15.6 8.5 62 0.0       98.54     LegendNANA
04:00 15.1 8.0 63 0.0       98.50     LegendNANA
05:00 14.5 9.0 70 0.0       98.50     LegendNANA
06:00 13.3 9.6 78 0.0       98.49     LegendNANA
07:00 12.3 9.9 85 0.0       98.49     LegendNANA
08:00 11.8 10.5 92 1.6       98.44     LegendNANA
09:00 11.5 10.6 94 6.9       98.45     LegendNANA
10:00 10.4 9.5 94 4.5       98.47     LegendNANA
11:00 10.5 9.7 95 2.4       98.47     LegendNANA
12:00 11.2 10.4 95 0.7       98.51     LegendNANA
13:00 13.2 11.5 89 0.0       98.51     LegendNANA
14:00 15.2 11.9 81 0.0       98.52     LegendNANA
15:00 16.2 12.3 78 0.0       98.51     LegendNANA
16:00 15.2 12.4 83 0.0       98.53     LegendNANA
17:00 14.7 12.3 85 0.0       98.61     LegendNANA
18:00 13.1 11.5 90 0.0       98.66     LegendNANA
19:00 12.4 11.5 94 0.0       98.70     LegendNANA
20:00 13.3 11.7 90 0.0       98.77     LegendNANA
21:00 12.9 11.6 92 0.0       98.77     LegendNANA
22:00 13.6 11.9 89 0.1       98.76     LegendNANA
23:00 13.3 10.7 84 0.0       98.79     LegendNANA

Notes on Data Quality.

Legend

  • E = Estimated
  • M = Missing
  • NA = Not Available*
  • [empty] = Indicates an unobserved value
Date modified: